Weather History for LIRN - March, 2013

Change the Weather History Date:

Sunday, March 3, 2013

  Actual Average Record
Temperature  
Mean Temperature 51 °F -  
Max Temperature 60 °F 60 °F 71 °F (1997)
Min Temperature 42 °F 43 °F 28 °F (2005)
Degree Days  
Heating Degree Days 14    
Growing Degree Days 1 (Base 50)    
Moisture  
Dew Point 35 °F    
Average Humidity 58    
Maximum Humidity 87    
Minimum Humidity 27    
Precipitation  
Precipitation 0.00 in 0.11 in - ()
Sea Level Pressure  
Sea Level Pressure 30.01 in    
Wind  
Wind Speed 5 mph ()    
Max Wind Speed 10 mph    
Max Gust Speed -    
Averages and records for this station are not official NWS values.
T = Trace of Precipitation, MM = Missing Value Source: Averaged Metar Reports

Daily Weather History Graph

Daily Weather History Graph

Search for Another Location

Airport or City:

Trip Planner

Search our weather history database for the weather conditions in past years. The results will help you decide how hot, cold, wet, or windy it might be!

Date:

Astronomy

Mar. 03, 2013 Rise Set
Actual Time 6:33 AM CET 5:56 PM CET
Civil Twilight 6:06 AM CET 6:23 PM CET
Nautical Twilight 5:34 AM CET 6:55 PM CET
Astronomical Twilight 5:02 AM CET 7:27 PM CET
Moon No Moon Rise 9:32 AM CET (3/3)
Length of Visible Light 12h 17m
Length of Day
11h 22m
Waning Gibbous, 66% of the Moon is Illuminated
Mar 3
Waning Gibbous
Mar 4
Last Quarter
Mar 11
New
Mar 19
First Quarter
Mar 27
Full

Hourly Weather History & Observations

Time (CET) Temp. Windchill Dew Point Humidity Pressure Visibility Wind Dir Wind Speed Gust Speed Precip Events Conditions
12:20 AM 46.4 °F 42.9 °F 35.6 °F 66% 29.98 in - NE 6.9 mph - N/A   Clear
12:50 AM 46.4 °F 42.9 °F 35.6 °F 66% 29.98 in - NE 6.9 mph - N/A   Clear
1:20 AM 46.4 °F 42.4 °F 33.8 °F 62% 29.98 in - NNE 8.1 mph - N/A   Clear
1:50 AM 44.6 °F 42.2 °F 33.8 °F 66% 29.98 in - NE 4.6 mph - N/A   Clear
2:20 AM 44.6 °F 43.1 °F 33.8 °F 66% 29.98 in - NW 3.5 mph - N/A   Clear
2:50 AM 44.6 °F 43.1 °F 33.8 °F 66% 29.98 in - NNE 3.5 mph - N/A   Clear
3:20 AM 44.6 °F 40.2 °F 33.8 °F 66% 29.98 in - NNE 8.1 mph - N/A   Clear
3:50 AM 44.6 °F 41.4 °F 33.8 °F 66% 29.98 in - North 5.8 mph - N/A   Clear
4:20 AM 44.6 °F 40.7 °F 32.0 °F 61% 29.98 in - North 6.9 mph - N/A   Clear
4:50 AM 44.6 °F 40.7 °F 32.0 °F 61% 30.01 in - North 6.9 mph - N/A   Clear
5:20 AM 44.6 °F 42.2 °F 32.0 °F 61% 30.01 in - NNW 4.6 mph - N/A   Clear
5:50 AM 42.8 °F 40.1 °F 32.0 °F 66% 30.01 in - NNW 4.6 mph - N/A   Clear
6:20 AM 44.6 °F 39.7 °F 30.2 °F 57% 30.01 in - NNE 9.2 mph - N/A   Clear
6:50 AM 44.6 °F 41.4 °F 30.2 °F 57% 30.01 in - North 5.8 mph - N/A   Clear
7:20 AM 44.6 °F 40.7 °F 32.0 °F 61% 30.01 in - North 6.9 mph - N/A   Clear
7:50 AM 48.2 °F - 32.0 °F 54% 30.01 in - North 5.8 mph - N/A   Clear
8:20 AM 48.2 °F - 33.8 °F 58% 30.04 in - NNW 5.8 mph - N/A   Clear
8:50 AM 50.0 °F - 33.8 °F 54% 30.04 in - North 4.6 mph - N/A   Clear
9:20 AM 51.8 °F - 32.0 °F 47% 30.04 in - NNE 4.6 mph - N/A   Clear
9:50 AM 53.6 °F - 30.2 °F 41% 30.01 in - NNE 3.5 mph - N/A   Clear
10:20 AM 55.4 °F - 32.0 °F 41% 30.01 in - Variable 2.3 mph - N/A   Clear
10:50 AM 55.4 °F - 30.2 °F 38% 30.01 in - ENE 4.6 mph - N/A   Clear
11:20 AM 57.2 °F - 30.2 °F 36% 30.01 in - North 3.5 mph - N/A   Clear
11:50 AM 57.2 °F - 33.8 °F 41% 30.01 in - NNE 4.6 mph - N/A   Clear
12:20 PM 59.0 °F - 26.6 °F 29% 30.01 in - NW 4.6 mph - N/A   Clear
12:50 PM 59.0 °F - 24.8 °F 27% 30.01 in - Variable 2.3 mph - N/A   Clear
1:20 PM 60.8 °F - 26.6 °F 27% 30.01 in - Variable 3.5 mph - N/A   Clear
1:50 PM 60.8 °F - 33.8 °F 36% 30.01 in - Variable 3.5 mph - N/A   Clear
2:20 PM 60.8 °F - 35.6 °F 39% 30.01 in - South 6.9 mph - N/A   Clear
2:50 PM 60.8 °F - 32.0 °F 34% 29.98 in - WSW 4.6 mph - N/A   Clear
3:20 PM 59.0 °F - 33.8 °F 39% 29.98 in - NNW 6.9 mph - N/A   Clear
3:50 PM 59.0 °F - 35.6 °F 42% 29.98 in - WNW 9.2 mph - N/A   Clear
4:20 PM 59.0 °F - 39.2 °F 48% 29.98 in - WNW 10.4 mph - N/A   Clear
4:50 PM 57.2 °F - 39.2 °F 51% 29.98 in - WNW 9.2 mph - N/A   Clear
5:20 PM 55.4 °F - 41.0 °F 58% 30.01 in - WNW 10.4 mph - N/A   Clear
5:50 PM 53.6 °F - 42.8 °F 67% 30.01 in - WNW 10.4 mph - N/A   Clear
6:20 PM 53.6 °F - 42.8 °F 67% 30.01 in - WNW 6.9 mph - N/A   Clear
6:50 PM 51.8 °F - 42.8 °F 71% 30.01 in - WNW 5.8 mph - N/A   Clear
7:20 PM 51.8 °F - 42.8 °F 71% 30.04 in - WNW 4.6 mph - N/A   Clear
7:50 PM 51.8 °F - 42.8 °F 71% 30.04 in - Variable 2.3 mph - N/A   Clear
8:20 PM 50.0 °F - 42.8 °F 76% 30.04 in - Variable 2.3 mph - N/A   Clear
8:50 PM 48.2 °F - 42.8 °F 82% 30.06 in - Variable 1.2 mph - N/A   Clear
9:20 PM 48.2 °F - 41.0 °F 76% 30.06 in - Variable 2.3 mph - N/A   Clear
9:50 PM 48.2 °F - 41.0 °F 76% 30.06 in - East 2.3 mph - N/A   Clear
10:20 PM 48.2 °F - 42.8 °F 82% 30.06 in - NE 2.3 mph - N/A   Clear
10:50 PM 46.4 °F - 41.0 °F 81% 30.06 in - Calm Calm - N/A   Clear
11:20 PM 44.6 °F - 41.0 °F 87% 30.06 in - Variable 1.2 mph - N/A   Clear
11:50 PM 44.6 °F - 41.0 °F 87% 30.06 in - Calm Calm - N/A   Clear